Weather History for Troy, AL

Change the Weather History Date:

Thursday, March 21, 2013

  Actual Average Record
Temperature  
Mean Temperature 46 °F 58 °F  
Max Temperature 60 °F 71 °F 83 °F (2012)
Min Temperature 32 °F 44 °F 32 °F (2013)
Degree Days  
Heating Degree Days 19 8  
Month to date heating degree days 296 212  
Since 1 July heating degree days 1902 2131  
Cooling Degree Days 0 1  
Month to date cooling degree days 3 1  
Year to date cooling degree days 23 6  
Moisture  
Dew Point 24 °F    
Average Humidity 54    
Maximum Humidity 89    
Minimum Humidity 18    
Precipitation  
Precipitation T in 0.21 in 0.63 in (2002)
Month to date precipitation 1.82 3.80  
Year to date precipitation 17.11 12.93  
Snow  
Snow 0.00 in - - ()
Month to date snowfall 0.0  
Since 1 July snowfall 0.0  
Snow Depth 0.00 in    
Sea Level Pressure  
Sea Level Pressure 29.99 in    
Wind  
Wind Speed 6 mph (NW)    
Max Wind Speed 16 mph    
Max Gust Speed 21 mph    
Visibility 10 miles    
Events      
T = Trace of Precipitation, MM = Missing Value Source: NWS Daily Summary

Daily Weather History Graph

Daily Weather History Graph

Search for Another Location

Airport:

Trip Planner

Search our weather history database for the weather conditions in past years. The results will help you decide how hot, cold, wet, or windy it might be!

Date:

Astronomy

Mar. 21, 2013 Rise Set
Actual Time 6:46 AM CDT 6:56 PM CDT
Civil Twilight 6:21 AM CDT 7:20 PM CDT
Nautical Twilight 5:53 AM CDT 7:49 PM CDT
Astronomical Twilight 5:24 AM CDT 8:18 PM CDT
Moon 1:42 PM CDT (3/21) 2:49 AM CDT (3/21)
Length of Visible Light 12h 58m
Length of Day
12h 10m
Waxing Gibbous, 69% of the Moon is Illuminated
Mar 21
Waxing Gibbous
Mar 27
Full
Apr 2
Last Quarter
Apr 10
New
Apr 18
First Quarter

Hourly Weather History & Observations

Time (CDT) Temp. Windchill Dew Point Humidity Pressure Visibility Wind Dir Wind Speed Gust Speed Precip Events Conditions
12:53 AM 44.1 °F 41.5 °F 28.0 °F 53% 30.00 in 10.0 mi NW 4.6 mph - N/A   Clear
1:53 AM 44.1 °F 40.1 °F 28.0 °F 53% 30.00 in 10.0 mi NW 6.9 mph - N/A   Clear
2:53 AM 39.9 °F 37.8 °F 30.9 °F 70% 30.01 in 10.0 mi WNW 3.5 mph - N/A   Clear
3:53 AM 37.0 °F - 32.0 °F 82% 29.99 in 10.0 mi Calm Calm - N/A   Clear
4:53 AM 35.1 °F - 30.9 °F 85% 29.99 in 10.0 mi Calm Calm - N/A   Clear
5:53 AM 34.0 °F - 30.0 °F 85% 30.00 in 10.0 mi Calm Calm - N/A   Clear
6:53 AM 34.0 °F 31.0 °F 30.0 °F 85% 30.00 in 10.0 mi NW 3.5 mph - N/A   Clear
7:53 AM 37.9 °F 32.7 °F 30.9 °F 76% 30.03 in 10.0 mi WNW 6.9 mph - N/A   Clear
8:53 AM 45.0 °F 39.3 °F 26.1 °F 48% 30.05 in 10.0 mi NW 11.5 mph - N/A   Clear
9:53 AM 48.9 °F - 19.0 °F 31% 30.04 in 10.0 mi NW 9.2 mph - N/A   Clear
10:53 AM 50.0 °F - 18.0 °F 28% 30.04 in 10.0 mi NNW 10.4 mph 18.4 mph N/A   Clear
11:53 AM 54.0 °F - 18.0 °F 24% 30.04 in 10.0 mi NW 15.0 mph 19.6 mph N/A   Clear
12:53 PM 55.0 °F - 17.1 °F 23% 30.02 in 10.0 mi NW 9.2 mph - N/A   Clear
1:53 PM 57.9 °F - 18.0 °F 21% 29.99 in 10.0 mi NNW 9.2 mph - N/A   Clear
2:53 PM 57.9 °F - 15.1 °F 19% 29.96 in 10.0 mi West 10.4 mph - N/A   Clear
3:53 PM 59.0 °F - 15.1 °F 18% 29.94 in 10.0 mi NNW 9.2 mph 18.4 mph N/A   Clear
4:53 PM 59.0 °F - 17.1 °F 20% 29.93 in 10.0 mi NNW 6.9 mph - N/A   Clear
5:53 PM 57.0 °F - 17.1 °F 21% 29.93 in 10.0 mi Variable 5.8 mph - N/A   Clear
6:53 PM 53.1 °F - 25.0 °F 34% 29.94 in 10.0 mi NNW 3.5 mph - N/A   Clear
7:53 PM 50.0 °F - 30.0 °F 46% 29.95 in 10.0 mi Calm Calm - N/A   Clear
8:53 PM 51.1 °F - 26.1 °F 38% 29.96 in 10.0 mi NE 3.5 mph - N/A   Overcast
9:53 PM 50.0 °F - 23.0 °F 35% 29.96 in 10.0 mi Calm Calm - N/A   Mostly Cloudy
10:53 PM 48.9 °F - 26.1 °F 41% 29.97 in 10.0 mi Calm Calm - N/A   Overcast
11:53 PM 48.0 °F - 25.0 °F 41% 29.95 in 10.0 mi NE 8.1 mph - 0.00 in   Overcast